TimeEDT,TemperatureF,Dew PointF,Humidity,Sea Level PressureIn,VisibilityMPH,Wind Direction,Wind SpeedMPH,Gust SpeedMPH,PrecipitationIn,Events,Conditions,WindDirDegrees,DateUTC
12:14 AM,35.6,26.6,70,29.87,10.0,NNW,6.9,-,N/A,,Overcast,330,2013-03-26 04:14:00
12:34 AM,35.6,26.6,70,29.88,10.0,NNW,8.1,-,N/A,,Overcast,330,2013-03-26 04:34:00
12:54 AM,35.6,26.6,70,29.88,10.0,NNW,6.9,-,N/A,,Overcast,340,2013-03-26 04:54:00
1:14 AM,35.6,26.6,70,29.88,10.0,NNW,8.1,-,N/A,,Overcast,330,2013-03-26 05:14:00
1:34 AM,35.6,26.6,70,29.88,10.0,NNW,9.2,-,N/A,,Overcast,330,2013-03-26 05:34:00
1:54 AM,35.6,26.6,70,29.89,10.0,NNW,10.4,-,N/A,,Overcast,330,2013-03-26 05:54:00
2:14 AM,35.6,26.6,70,29.89,10.0,NNW,9.2,16.1,N/A,,Overcast,330,2013-03-26 06:14:00
2:34 AM,35.6,26.6,70,29.89,10.0,NNW,11.5,16.1,N/A,,Overcast,330,2013-03-26 06:34:00
2:54 AM,35.6,26.6,70,29.90,10.0,NNW,8.1,-,N/A,,Overcast,330,2013-03-26 06:54:00
3:14 AM,35.6,26.6,70,29.90,10.0,NNW,6.9,-,N/A,,Overcast,330,2013-03-26 07:14:00
3:34 AM,35.6,26.6,70,29.90,10.0,NNW,9.2,-,N/A,,Overcast,330,2013-03-26 07:34:00
3:54 AM,35.6,26.6,70,29.90,10.0,NNW,12.7,-,N/A,,Overcast,330,2013-03-26 07:54:00
4:14 AM,35.6,26.6,70,29.90,10.0,NW,13.8,18.4,N/A,,Overcast,320,2013-03-26 08:14:00
4:34 AM,35.6,26.6,70,29.90,10.0,NW,10.4,-,N/A,,Overcast,320,2013-03-26 08:34:00
4:54 AM,35.6,26.6,70,29.90,10.0,NW,11.5,-,N/A,,Overcast,320,2013-03-26 08:54:00
5:15 AM,35.6,26.6,70,29.91,10.0,NNW,10.4,-,N/A,,Overcast,330,2013-03-26 09:15:00
5:34 AM,35.6,26.6,70,29.91,10.0,NNW,10.4,-,N/A,,Overcast,330,2013-03-26 09:34:00
5:54 AM,35.6,26.6,70,29.92,10.0,NNW,12.7,-,N/A,,Overcast,330,2013-03-26 09:54:00
6:14 AM,35.6,26.6,70,29.92,10.0,NNW,10.4,17.3,N/A,,Overcast,330,2013-03-26 10:14:00
6:34 AM,35.6,26.6,70,29.93,10.0,NNW,11.5,-,N/A,,Overcast,330,2013-03-26 10:34:00
6:55 AM,35.6,26.6,70,29.94,10.0,NW,11.5,17.3,N/A,,Overcast,320,2013-03-26 10:55:00
7:14 AM,35.6,26.6,70,29.95,10.0,NNW,8.1,-,N/A,,Overcast,330,2013-03-26 11:14:00
7:34 AM,35.6,26.6,70,29.96,10.0,NNW,11.5,-,N/A,,Overcast,330,2013-03-26 11:34:00
7:54 AM,35.6,28.4,75,29.96,10.0,NW,8.1,-,N/A,,Overcast,310,2013-03-26 11:54:00
8:14 AM,33.8,28.4,81,29.97,10.0,NW,8.1,-,N/A,,Overcast,320,2013-03-26 12:14:00
8:34 AM,35.6,28.4,75,29.98,10.0,NW,8.1,-,N/A,,Overcast,310,2013-03-26 12:34:00
8:54 AM,35.6,26.6,70,29.98,10.0,NW,10.4,-,N/A,,Overcast,310,2013-03-26 12:54:00
9:14 AM,35.6,28.4,75,29.99,10.0,NW,12.7,-,N/A,,Overcast,320,2013-03-26 13:14:00
9:34 AM,35.6,28.4,75,29.99,10.0,NW,9.2,-,N/A,,Overcast,310,2013-03-26 13:34:00
9:54 AM,37.4,28.4,70,29.99,10.0,NW,11.5,-,N/A,,Overcast,310,2013-03-26 13:54:00
10:14 AM,37.4,28.4,70,30.00,10.0,NW,10.4,-,N/A,,Overcast,310,2013-03-26 14:14:00
10:34 AM,37.4,28.4,70,30.00,10.0,NW,10.4,-,N/A,,Overcast,310,2013-03-26 14:34:00
10:54 AM,39.2,28.4,65,30.00,10.0,NNW,10.4,-,N/A,,Overcast,330,2013-03-26 14:54:00
11:14 AM,39.2,28.4,65,30.01,10.0,NW,11.5,-,N/A,,Overcast,310,2013-03-26 15:14:00
11:34 AM,39.2,28.4,65,30.01,10.0,WNW,11.5,-,N/A,,Overcast,300,2013-03-26 15:34:00
11:54 AM,41.0,28.4,61,30.01,10.0,WNW,10.4,-,N/A,,Overcast,300,2013-03-26 15:54:00
12:14 PM,41.0,28.4,61,30.01,10.0,WNW,9.2,-,N/A,,Mostly Cloudy,300,2013-03-26 16:14:00
12:34 PM,42.8,28.4,57,30.01,10.0,WNW,9.2,-,N/A,,Mostly Cloudy,290,2013-03-26 16:34:00
12:54 PM,42.8,28.4,57,30.01,10.0,NW,12.7,-,N/A,,Mostly Cloudy,310,2013-03-26 16:54:00
1:14 PM,46.4,28.4,50,30.01,10.0,WNW,11.5,17.3,N/A,,Overcast,290,2013-03-26 17:14:00
1:34 PM,46.4,28.4,50,30.00,10.0,NW,9.2,12.7,N/A,,Overcast,310,2013-03-26 17:34:00
1:54 PM,44.6,24.8,46,30.00,10.0,NNW,13.8,-,N/A,,Overcast,330,2013-03-26 17:54:00
2:14 PM,44.6,24.8,46,30.00,10.0,NW,11.5,-,N/A,,Overcast,310,2013-03-26 18:14:00
2:34 PM,44.6,24.8,46,30.00,10.0,NW,11.5,-,N/A,,Overcast,320,2013-03-26 18:34:00
2:54 PM,42.8,24.8,49,30.00,10.0,WNW,8.1,-,N/A,,Mostly Cloudy,290,2013-03-26 18:54:00
3:14 PM,44.6,24.8,46,30.01,10.0,NW,17.3,21.9,N/A,,Mostly Cloudy,320,2013-03-26 19:14:00
3:34 PM,39.2,30.2,70,30.02,7.0,NNW,15.0,23.0,N/A,,Overcast,340,2013-03-26 19:34:00
3:54 PM,37.4,30.2,75,30.01,10.0,NNE,9.2,-,N/A,,Overcast,30,2013-03-26 19:54:00
4:14 PM,39.2,30.2,70,30.01,10.0,WNW,3.5,-,N/A,,Overcast,290,2013-03-26 20:14:00
4:35 PM,41.0,28.4,61,30.01,10.0,NW,4.6,-,N/A,,Overcast,310,2013-03-26 20:35:00
4:54 PM,42.8,28.4,57,30.01,10.0,WNW,6.9,-,N/A,,Overcast,300,2013-03-26 20:54:00
5:14 PM,42.8,26.6,53,30.02,10.0,West,6.9,-,N/A,,Overcast,280,2013-03-26 21:14:00
5:34 PM,42.8,23.0,46,30.02,10.0,WNW,8.1,-,N/A,,Overcast,290,2013-03-26 21:34:00
5:54 PM,42.8,24.8,49,30.02,10.0,West,12.7,16.1,N/A,,Overcast,280,2013-03-26 21:54:00
6:14 PM,39.2,30.2,70,30.03,10.0,North,11.5,19.6,N/A,,Overcast,350,2013-03-26 22:14:00
6:34 PM,39.2,30.2,70,30.04,10.0,NNW,10.4,-,N/A,Rain,Light Rain,340,2013-03-26 22:34:00
6:54 PM,39.2,30.2,70,30.04,10.0,NNW,5.8,-,N/A,,Overcast,340,2013-03-26 22:54:00
7:14 PM,39.2,28.4,65,30.05,10.0,Calm,Calm,-,N/A,,Overcast,0,2013-03-26 23:14:00
7:34 PM,39.2,26.6,61,30.05,10.0,West,4.6,-,N/A,,Overcast,280,2013-03-26 23:34:00
7:54 PM,39.2,24.8,56,30.05,10.0,WNW,15.0,-,N/A,,Overcast,300,2013-03-26 23:54:00
8:14 PM,39.2,26.6,61,30.06,10.0,NW,8.1,16.1,N/A,,Overcast,320,2013-03-27 00:14:00
8:34 PM,39.2,28.4,65,30.06,10.0,NW,6.9,-,N/A,,Overcast,320,2013-03-27 00:34:00
8:54 PM,39.2,26.6,61,30.07,10.0,West,6.9,-,N/A,,Overcast,280,2013-03-27 00:54:00
9:14 PM,39.2,26.6,61,30.07,10.0,West,5.8,-,N/A,,Overcast,280,2013-03-27 01:14:00
9:34 PM,39.2,26.6,61,30.08,10.0,West,4.6,-,N/A,,Overcast,270,2013-03-27 01:34:00
9:54 PM,37.4,26.6,65,30.08,10.0,West,6.9,-,N/A,,Overcast,270,2013-03-27 01:54:00
10:14 PM,37.4,28.4,70,30.09,10.0,West,8.1,-,N/A,,Overcast,280,2013-03-27 02:14:00
10:34 PM,37.4,28.4,70,30.09,10.0,West,8.1,-,N/A,,Overcast,280,2013-03-27 02:34:00
10:54 PM,37.4,28.4,70,30.09,10.0,WNW,9.2,-,N/A,,Overcast,290,2013-03-27 02:54:00
11:14 PM,37.4,28.4,70,30.09,10.0,WNW,12.7,-,N/A,,Overcast,290,2013-03-27 03:14:00
11:34 PM,37.4,28.4,70,30.09,10.0,West,8.1,-,N/A,,Overcast,280,2013-03-27 03:34:00
11:54 PM,37.4,30.2,75,30.09,10.0,West,8.1,-,N/A,,Overcast,280,2013-03-27 03:54:00